TimeMDT,TemperatureF,Dew PointF,Humidity,Sea Level PressureIn,VisibilityMPH,Wind Direction,Wind SpeedMPH,Gust SpeedMPH,PrecipitationIn,Events,Conditions,WindDirDegrees,DateUTC
12:53 AM,33.1,32.0,96,30.12,9.0,NNW,6.9,-,N/A,,Clear,330,2013-03-30 06:53:00
1:53 AM,34.0,32.0,92,30.12,10.0,NW,4.6,-,N/A,,Overcast,320,2013-03-30 07:53:00
2:53 AM,30.9,30.0,96,30.12,5.0,West,5.8,-,N/A,,Scattered Clouds,270,2013-03-30 08:53:00
3:53 AM,30.9,30.0,96,30.12,9.0,NNW,8.1,-,N/A,,Clear,340,2013-03-30 09:53:00
4:53 AM,28.9,27.0,92,30.12,9.0,WNW,6.9,-,N/A,,Clear,300,2013-03-30 10:53:00
5:53 AM,28.9,27.0,92,30.12,8.0,WNW,5.8,-,N/A,,Clear,300,2013-03-30 11:53:00
6:53 AM,30.0,28.9,96,30.12,7.0,NW,8.1,-,N/A,,Clear,320,2013-03-30 12:53:00
7:53 AM,30.9,28.9,92,30.13,5.0,Calm,Calm,-,N/A,,Clear,0,2013-03-30 13:53:00
8:53 AM,33.1,30.9,92,30.14,5.0,WSW,3.5,-,N/A,,Clear,250,2013-03-30 14:53:00
9:53 AM,36.0,33.1,89,30.14,7.0,West,4.6,-,N/A,,Mostly Cloudy,280,2013-03-30 15:53:00
10:53 AM,42.1,35.1,76,30.19,10.0,WNW,12.7,-,N/A,,Clear,300,2013-03-30 16:53:00
11:31 AM,42.8,33.8,70,30.13,10.0,North,18.4,-,N/A,,Mostly Cloudy,360,2013-03-30 17:31:00
11:53 AM,41.0,33.1,73,30.18,10.0,North,16.1,-,N/A,,Overcast,10,2013-03-30 17:53:00
12:53 PM,43.0,35.1,74,30.18,10.0,Calm,Calm,-,N/A,,Overcast,0,2013-03-30 18:53:00
1:53 PM,50.0,37.0,61,30.17,10.0,West,11.5,-,N/A,,Clear,280,2013-03-30 19:53:00
2:53 PM,53.1,34.0,48,30.16,10.0,NNW,17.3,21.9,N/A,,Mostly Cloudy,340,2013-03-30 20:53:00
3:53 PM,52.0,35.1,53,30.17,10.0,NNW,18.4,25.3,N/A,,Partly Cloudy,340,2013-03-30 21:53:00
4:53 PM,50.0,27.0,41,30.17,10.0,NNW,20.7,27.6,N/A,,Clear,340,2013-03-30 22:53:00
5:53 PM,46.9,27.0,46,30.17,10.0,North,13.8,-,N/A,,Clear,350,2013-03-30 23:53:00
6:53 PM,43.0,30.9,62,30.17,10.0,North,6.9,-,N/A,,Clear,10,2013-03-31 00:53:00
7:53 PM,39.0,30.9,73,30.17,10.0,NNE,8.1,-,N/A,,Clear,20,2013-03-31 01:53:00
8:53 PM,35.1,28.0,76,30.18,10.0,NNE,6.9,-,N/A,,Clear,30,2013-03-31 02:53:00
9:53 PM,35.1,26.1,70,30.18,10.0,Variable,3.5,-,N/A,,Clear,0,2013-03-31 03:53:00
10:53 PM,34.0,25.0,70,30.15,10.0,Calm,Calm,-,N/A,,Mostly Cloudy,0,2013-03-31 04:53:00
11:53 PM,32.0,23.0,69,30.14,10.0,South,5.8,-,N/A,,Clear,170,2013-03-31 05:53:00